Weather History for Bloomington, IN

Change the Weather History Date:

Thursday, December 27, 2012

  Actual Average Record
Temperature  
Mean Temperature 31 °F 30 °F  
Max Temperature 33 °F 38 °F 69 °F (2008)
Min Temperature 29 °F 22 °F 0 °F (2004)
Degree Days  
Heating Degree Days 34 35  
Month to date heating degree days 646 876  
Since 1 July heating degree days 1862 1932  
Cooling Degree Days 0 0  
Month to date cooling degree days 1 0  
Year to date cooling degree days 1310 927  
Moisture  
Dew Point 24 °F    
Average Humidity 76    
Maximum Humidity 85    
Minimum Humidity 66    
Precipitation  
Precipitation 0.00 in 0.13 in 0.73 in (2008)
Month to date precipitation 2.07 3.02  
Year to date precipitation 30.90 47.03  
Sea Level Pressure  
Sea Level Pressure 30.12 in    
Wind  
Wind Speed 3 mph (WNW)    
Max Wind Speed 8 mph    
Max Gust Speed 14 mph    
Visibility 10 miles    
Events      
T = Trace of Precipitation, MM = Missing Value Source: NWS Daily Summary

Daily Weather History Graph

Daily Weather History Graph

Search for Another Location

Airport:

Trip Planner

Search our weather history database for the weather conditions in past years. The results will help you decide how hot, cold, wet, or windy it might be!

Date:

Astronomy

Dec. 27, 2012 Rise Set
Actual Time 8:04 AM EST 5:30 PM EST
Civil Twilight 7:34 AM EST 6:01 PM EST
Nautical Twilight 7:01 AM EST 6:34 PM EST
Astronomical Twilight 6:28 AM EST 7:07 PM EST
Moon 5:13 PM EST (12/27) 7:15 AM EST (12/27)
Length of Visible Light 10h 26m
Length of Day
9h 26m
Full, 100% of the Moon is Illuminated
Dec 27
Full
Dec 28
Full
Jan 4
Last Quarter
Jan 11
New
Jan 18
First Quarter

Hourly Weather History & Observations

Time (EST) Temp. Windchill Dew Point Humidity Pressure Visibility Wind Dir Wind Speed Gust Speed Precip Events Conditions
12:36 AM 28.4 °F 23.3 °F 23.0 °F 80% 30.00 in 10.0 mi NW 4.6 mph - N/A   Overcast
12:53 AM 28.9 °F 25.2 °F 23.0 °F 78% 30.03 in 10.0 mi NW 3.5 mph - N/A   Overcast
1:53 AM 30.0 °F 22.4 °F 21.9 °F 72% 30.03 in 10.0 mi WNW 8.1 mph - N/A   Overcast
2:53 AM 30.0 °F 22.4 °F 21.9 °F 72% 30.07 in 10.0 mi NW 8.1 mph - N/A   Overcast
3:09 AM 30.2 °F 25.4 °F 23.0 °F 75% 30.05 in 10.0 mi WNW 4.6 mph - N/A   Overcast
3:53 AM 30.0 °F 25.2 °F 23.0 °F 75% 30.09 in 10.0 mi WNW 4.6 mph - N/A   Overcast
4:53 AM 30.0 °F 26.5 °F 24.1 °F 79% 30.09 in 10.0 mi WNW 3.5 mph - N/A   Overcast
5:53 AM 30.0 °F 25.2 °F 24.1 °F 79% 30.10 in 10.0 mi WNW 4.6 mph - N/A   Overcast
6:53 AM 30.0 °F 24.1 °F 25.0 °F 82% 30.12 in 10.0 mi WNW 5.8 mph - N/A   Overcast
7:53 AM 28.9 °F 23.9 °F 24.1 °F 82% 30.14 in 10.0 mi WNW 4.6 mph - N/A   Overcast
8:53 AM 28.9 °F 25.2 °F 24.1 °F 82% 30.15 in 10.0 mi WNW 3.5 mph - N/A   Overcast
9:53 AM 28.9 °F 23.9 °F 24.1 °F 82% 30.17 in 8.0 mi Variable 4.6 mph - N/A   Overcast
10:53 AM 30.0 °F 24.1 °F 24.1 °F 79% 30.20 in 10.0 mi West 5.8 mph - N/A   Overcast
11:53 AM 30.9 °F 27.5 °F 24.1 °F 76% 30.17 in 10.0 mi NNW 3.5 mph - N/A   Overcast
12:53 PM 32.0 °F - 25.0 °F 75% 30.15 in 10.0 mi Calm Calm - N/A   Overcast
1:53 PM 32.0 °F - 25.0 °F 75% 30.14 in 10.0 mi Calm Calm - N/A   Overcast
2:53 PM 32.0 °F - 24.1 °F 73% 30.14 in 10.0 mi Calm Calm - N/A   Overcast
3:53 PM 32.0 °F - 23.0 °F 69% 30.14 in 10.0 mi Calm Calm - N/A   Overcast
4:53 PM 32.0 °F - 24.1 °F 73% 30.15 in 10.0 mi Calm Calm - N/A   Overcast
5:53 PM 30.9 °F - 25.0 °F 79% 30.15 in 10.0 mi Calm Calm - N/A   Overcast
7:53 PM 30.9 °F - 25.0 °F 79% 30.17 in 10.0 mi Calm Calm - N/A   Overcast
8:53 PM 30.9 °F - 25.0 °F 79% 30.15 in 9.0 mi Calm Calm - N/A   Overcast
9:53 PM 30.9 °F 27.5 °F 25.0 °F 79% 30.15 in 10.0 mi SE 3.5 mph - N/A   Overcast
10:53 PM 30.9 °F 27.5 °F 25.0 °F 79% 30.15 in 10.0 mi SE 3.5 mph - N/A   Overcast
11:53 PM 30.0 °F - 26.1 °F 85% 30.15 in 9.0 mi Calm Calm - N/A   Overcast